TimeCDT,TemperatureF,Dew PointF,Humidity,Sea Level PressureIn,VisibilityMPH,Wind Direction,Wind SpeedMPH,Gust SpeedMPH,PrecipitationIn,Events,Conditions,WindDirDegrees,DateUTC
12:15 AM,55.4,51.8,88,29.70,10.0,SSE,5.8,-,0.01,,Mostly Cloudy,150,2013-03-10 06:15:00
12:35 AM,55.4,51.8,88,29.74,10.0,SSW,6.9,-,0.01,,Overcast,200,2013-03-10 06:35:00
12:55 AM,55.4,51.8,88,29.71,10.0,SSE,10.4,-,0.01,,Overcast,160,2013-03-10 06:55:00
1:15 AM,55.4,50.0,82,29.72,10.0,South,9.2,-,0.01,,Overcast,170,2013-03-10 07:15:00
1:35 AM,55.4,50.0,82,29.72,10.0,South,11.5,17.3,0.04,,Overcast,170,2013-03-10 07:35:00
1:55 AM,53.6,50.0,88,29.68,10.0,SE,12.7,-,0.06,,Overcast,140,2013-03-10 07:55:00
3:15 AM,53.6,50.0,88,29.66,10.0,SE,10.4,-,N/A,,Overcast,140,2013-03-10 08:15:00
3:35 AM,53.6,48.2,82,29.68,10.0,South,10.4,-,N/A,,Overcast,170,2013-03-10 08:35:00
3:55 AM,55.4,48.2,77,29.70,10.0,South,10.4,16.1,N/A,,Overcast,180,2013-03-10 08:55:00
4:15 AM,55.4,48.2,77,29.72,10.0,SSW,10.4,-,N/A,,Mostly Cloudy,200,2013-03-10 09:15:00
4:35 AM,53.6,46.4,77,29.72,10.0,SW,13.8,21.9,0.04,,Mostly Cloudy,230,2013-03-10 09:35:00
4:55 AM,51.8,46.4,82,29.73,10.0,West,6.9,-,0.13,,Mostly Cloudy,260,2013-03-10 09:55:00
5:15 AM,51.8,48.2,88,29.70,10.0,Calm,Calm,-,0.02,,Mostly Cloudy,0,2013-03-10 10:15:00
5:35 AM,51.8,48.2,88,29.72,10.0,SW,4.6,-,0.03,,Overcast,230,2013-03-10 10:35:00
5:55 AM,51.8,46.4,82,29.73,10.0,SW,4.6,-,0.09,,Overcast,220,2013-03-10 10:55:00
6:15 AM,51.8,46.4,82,29.75,10.0,SW,4.6,-,0.07,,Overcast,220,2013-03-10 11:15:00
7:35 AM,50.0,46.4,87,29.68,10.0,SE,5.8,-,0.06,,Overcast,130,2013-03-10 12:35:00
7:55 AM,50.0,46.4,87,29.70,10.0,South,6.9,-,0.10,,Overcast,170,2013-03-10 12:55:00
8:15 AM,48.2,46.4,93,29.73,10.0,SSE,6.9,-,0.02,,Overcast,160,2013-03-10 13:15:00
8:35 AM,48.2,46.4,93,29.71,10.0,SE,10.4,-,0.08,,Overcast,140,2013-03-10 13:35:00
8:55 AM,48.2,44.6,87,29.70,10.0,SE,8.1,-,0.12,,Overcast,140,2013-03-10 13:55:00
9:15 AM,48.2,46.4,93,29.68,10.0,SE,10.4,-,0.02,,Overcast,140,2013-03-10 14:15:00
9:35 AM,48.2,44.6,87,29.68,10.0,SSE,8.1,-,0.02,,Mostly Cloudy,150,2013-03-10 14:35:00
9:55 AM,48.2,46.4,93,29.68,10.0,SE,11.5,-,0.03,,Overcast,130,2013-03-10 14:55:00
10:15 AM,48.2,46.4,93,29.71,10.0,SSE,9.2,-,0.01,,Overcast,160,2013-03-10 15:15:00
10:35 AM,48.2,46.4,93,29.68,10.0,SE,8.1,-,0.01,,Mostly Cloudy,140,2013-03-10 15:35:00
10:55 AM,48.2,46.4,93,29.70,10.0,South,4.6,-,0.01,,Mostly Cloudy,180,2013-03-10 15:55:00
11:15 AM,50.0,46.4,87,29.68,10.0,South,4.6,-,N/A,,Mostly Cloudy,170,2013-03-10 16:15:00
11:35 AM,50.0,46.4,87,29.68,10.0,SSE,9.2,-,N/A,,Mostly Cloudy,160,2013-03-10 16:35:00
11:55 AM,51.8,46.4,82,29.71,10.0,South,9.2,-,N/A,,Mostly Cloudy,190,2013-03-10 16:55:00
12:15 PM,51.8,46.4,82,29.69,10.0,South,16.1,20.7,N/A,,Overcast,190,2013-03-10 17:15:00
12:35 PM,51.8,46.4,82,29.67,10.0,SSW,9.2,-,N/A,,Mostly Cloudy,200,2013-03-10 17:35:00
12:55 PM,53.6,46.4,77,29.68,10.0,SSW,12.7,19.6,N/A,,Overcast,210,2013-03-10 17:55:00
1:15 PM,53.6,46.4,77,29.68,10.0,SW,17.3,-,N/A,,Overcast,220,2013-03-10 18:15:00
1:35 PM,44.6,39.2,81,29.70,1.2,West,19.6,25.3,N/A,,Overcast,280,2013-03-10 18:35:00
1:55 PM,42.8,39.2,87,29.72,1.8,West,21.9,26.5,N/A,,Overcast,270,2013-03-10 18:55:00
2:15 PM,42.8,39.2,87,29.73,4.0,West,15.0,21.9,N/A,,Overcast,260,2013-03-10 19:15:00
2:35 PM,42.8,37.4,81,29.73,5.0,West,13.8,20.7,N/A,,Overcast,260,2013-03-10 19:35:00
2:55 PM,42.8,37.4,81,29.74,7.0,West,15.0,21.9,N/A,,Overcast,260,2013-03-10 19:55:00
3:15 PM,42.8,37.4,81,29.75,6.0,WSW,16.1,19.6,N/A,,Overcast,250,2013-03-10 20:15:00
3:35 PM,41.0,37.4,87,29.76,5.0,West,16.1,20.7,N/A,,Overcast,260,2013-03-10 20:35:00
3:55 PM,41.0,37.4,87,29.78,5.0,WSW,12.7,21.9,N/A,,Overcast,250,2013-03-10 20:55:00
4:15 PM,41.0,37.4,87,29.78,5.0,West,12.7,19.6,N/A,,Overcast,280,2013-03-10 21:15:00
4:35 PM,39.2,35.6,87,29.79,3.0,West,16.1,20.7,0.01,,Overcast,280,2013-03-10 21:35:00
4:55 PM,39.2,35.6,87,29.79,9.0,West,13.8,-,0.01,,Overcast,280,2013-03-10 21:55:00
5:15 PM,39.2,35.6,87,29.81,5.0,West,13.8,18.4,N/A,,Overcast,270,2013-03-10 22:15:00
5:35 PM,39.2,35.6,87,29.81,3.0,West,13.8,-,N/A,,Overcast,280,2013-03-10 22:35:00
5:55 PM,37.4,33.8,87,29.82,3.0,WNW,17.3,25.3,N/A,,Overcast,290,2013-03-10 22:55:00
6:15 PM,37.4,33.8,87,29.82,10.0,West,12.7,-,N/A,,Overcast,280,2013-03-10 23:15:00
6:35 PM,37.4,32.0,81,29.83,6.0,West,17.3,20.7,N/A,,Overcast,280,2013-03-10 23:35:00
6:55 PM,35.6,30.2,81,29.84,3.0,WNW,16.1,20.7,N/A,,Overcast,290,2013-03-10 23:55:00
7:15 PM,33.8,30.2,87,29.86,2.5,WNW,16.1,24.2,N/A,,Overcast,290,2013-03-11 00:15:00
7:35 PM,33.8,28.4,81,29.87,5.0,WNW,17.3,21.9,N/A,,Overcast,300,2013-03-11 00:35:00
7:55 PM,32.0,28.4,87,29.88,5.0,WNW,15.0,19.6,N/A,,Overcast,300,2013-03-11 00:55:00
8:15 PM,32.0,28.4,87,29.88,4.0,WNW,15.0,-,N/A,,Overcast,300,2013-03-11 01:15:00
8:35 PM,32.0,28.4,87,29.89,5.0,West,12.7,21.9,N/A,,Overcast,280,2013-03-11 01:35:00
9:15 PM,30.2,26.6,86,29.90,5.0,WNW,11.5,-,N/A,,Overcast,300,2013-03-11 02:15:00
9:35 PM,30.2,26.6,86,29.90,5.0,WNW,12.7,18.4,N/A,,Overcast,300,2013-03-11 02:35:00
9:55 PM,30.2,26.6,86,29.91,5.0,WNW,10.4,17.3,N/A,,Overcast,300,2013-03-11 02:55:00
10:15 PM,30.2,26.6,86,29.92,10.0,WNW,10.4,-,N/A,,Overcast,300,2013-03-11 03:15:00
10:35 PM,30.2,26.6,86,29.93,10.0,WNW,13.8,-,N/A,,Overcast,290,2013-03-11 03:35:00
10:55 PM,30.2,24.8,80,29.93,10.0,WNW,15.0,19.6,N/A,,Overcast,300,2013-03-11 03:55:00
11:15 PM,30.2,26.6,86,29.93,10.0,WNW,10.4,18.4,N/A,,Overcast,290,2013-03-11 04:15:00
11:35 PM,30.2,24.8,80,29.93,10.0,WNW,13.8,19.6,N/A,,Overcast,290,2013-03-11 04:35:00
12:15 AM,30.2,24.8,80,29.93,7.0,WNW,12.7,20.7,N/A,,Overcast,300,2013-03-11 05:15:00
12:35 AM,30.2,24.8,80,29.92,8.0,WNW,13.8,20.7,N/A,,Overcast,290,2013-03-11 05:35:00
12:55 AM,30.2,24.8,80,29.92,9.0,WNW,13.8,19.6,N/A,,Overcast,300,2013-03-11 05:55:00